Weather History for Kaneohe MCBH, HI

Change the Weather History Date:

Monday, May 6, 2013

  Actual Average Record
Temperature  
Mean Temperature 77 °F -  
Max Temperature 82 °F 76 °F 82 °F (2003)
Min Temperature 72 °F 69 °F 33 °F (2002)
Cooling Degree Days 12    
Growing Degree Days 27 (Base 50)    
Moisture  
Dew Point 65 °F    
Average Humidity 70    
Maximum Humidity 94    
Minimum Humidity 50    
Precipitation  
Precipitation 0.01 in - - ()
Sea Level Pressure  
Sea Level Pressure 29.92 in    
Wind  
Wind Speed 7 mph (NNW)    
Max Wind Speed 13 mph    
Max Gust Speed -    
Visibility 10 miles    
Events Rain    
Averages and records for this station are not official NWS values.
T = Trace of Precipitation, MM = Missing Value Source: NWS Daily Summary

Daily Weather History Graph

Daily Weather History Graph

Search for Another Location

Airport:

Trip Planner

Search our weather history database for the weather conditions in past years. The results will help you decide how hot, cold, wet, or windy it might be!

Date:

Astronomy

May. 06, 2013 Rise Set
Actual Time 5:56 AM HST 6:58 PM HST
Civil Twilight 5:33 AM HST 7:22 PM HST
Nautical Twilight 5:05 AM HST 7:50 PM HST
Astronomical Twilight 4:36 AM HST 8:18 PM HST
Moon 3:43 AM HST (5/6) 4:27 PM HST (5/6)
Length of Visible Light 13h 49m
Length of Day
13h 01m
Waning Crescent, 9% of the Moon is Illuminated
May 6
Waning Crescent
May 9
New
May 17
First Quarter
May 24
Full
May 31
Last Quarter

Hourly Weather History & Observations

Time (HST) Temp. Heat Index Dew Point Humidity Pressure Visibility Wind Dir Wind Speed Gust Speed Precip Events Conditions
12:57 AM 72.0 °F - 69.1 °F 91% 29.91 in 10.0 mi WNW 6.9 mph - N/A   Overcast
1:57 AM 72.1 °F - 70.0 °F 93% 29.88 in 10.0 mi West 4.6 mph - N/A   Mostly Cloudy
2:57 AM 72.1 °F - 69.1 °F 90% 29.87 in 10.0 mi NW 5.8 mph - 0.00 in Rain Light Rain
3:57 AM 72.5 °F - 69.1 °F 89% 29.88 in 10.0 mi NNE 6.9 mph - 0.00 in   Overcast
4:57 AM 74.1 °F - 72.0 °F 93% 29.88 in 10.0 mi NNW 8.1 mph - N/A   Mostly Cloudy
5:57 AM 72.9 °F - 70.0 °F 91% 29.89 in 10.0 mi NNW 6.9 mph - N/A   Mostly Cloudy
6:57 AM 73.4 °F - 65.7 °F 77% 29.91 in 10.0 mi NNW 9.2 mph - N/A   Overcast
7:57 AM 74.8 °F - 65.7 °F 73% 29.93 in 10.0 mi North 8.1 mph - N/A   Overcast
8:57 AM 78.8 °F - 66.0 °F 65% 29.95 in 10.0 mi North 8.1 mph - 0.01 in   Mostly Cloudy
9:45 AM - - - N/A% - - North - - N/A   Unknown
9:57 AM 78.8 °F - 64.0 °F 60% 29.95 in 10.0 mi North 9.2 mph - N/A   Partly Cloudy
10:57 AM 78.8 °F - 64.0 °F 60% 29.94 in 10.0 mi North 9.2 mph - N/A   Scattered Clouds
11:57 AM 78.8 °F - 62.1 °F 56% 29.93 in 10.0 mi North 9.2 mph - N/A   Scattered Clouds
12:57 PM 82.4 °F 83.2 °F 62.1 °F 50% 29.92 in 10.0 mi North 12.7 mph - N/A   Scattered Clouds
1:57 PM 82.4 °F 83.9 °F 64.0 °F 54% 29.89 in 10.0 mi NNE 6.9 mph - N/A   Clear
2:57 PM 82.4 °F 83.5 °F 63.0 °F 52% 29.87 in 10.0 mi North 8.1 mph - N/A   Partly Cloudy
3:57 PM 82.4 °F 83.5 °F 63.0 °F 52% 29.87 in 10.0 mi NNE 8.1 mph - N/A   Clear
4:57 PM 80.6 °F 81.7 °F 62.1 °F 53% 29.88 in 10.0 mi North 5.8 mph - N/A   Scattered Clouds
5:57 PM 77.0 °F - 62.1 °F 60% 29.91 in 10.0 mi North 8.1 mph - N/A   Overcast
6:57 PM 75.2 °F - 62.1 °F 64% 29.92 in 10.0 mi North 5.8 mph - N/A   Scattered Clouds
7:57 PM 75.2 °F - 61.0 °F 61% 29.94 in 10.0 mi North 5.8 mph - N/A   Partly Cloudy
8:57 PM 75.2 °F - 62.1 °F 64% 29.96 in 10.0 mi NW 3.5 mph - N/A   Clear
9:57 PM 75.2 °F - 64.0 °F 68% 29.97 in 10.0 mi Calm Calm - N/A   Clear
10:57 PM 75.2 °F - 66.0 °F 73% 29.97 in 10.0 mi SW 3.5 mph - N/A   Partly Cloudy
11:57 PM 73.4 °F - 71.6 °F 94% 29.97 in - South 3.5 mph - N/A   Scattered Clouds